Orbital Elements at Epoch 2459200.5 (2020-Dec-17.0) TDB
Reference: JPL 28 (heliocentric ecliptic J2000)
Element | Value | Uncertainty (1-sigma) | Units |
e | .1051043249207168 | 4.6955e-08 | |
a | 3.023737498980339 | 2.6712e-08 | au |
q | 2.705929610412554 | 1.5416e-07 | au |
i | 9.989175279995722 | 5.0774e-06 | deg |
node | 169.4146510082267 | 2.3104e-05 | deg |
peri | 320.8791124082705 | 3.3461e-05 | deg |
M | 339.9836567714418 | 2.2686e-05 | deg |
tp | 2459307.281691065906 (2021-Apr-02.78169107) | 0.00012128 | TDB |
period | 1920.501079781658 5.26 | 2.5449e-05 6.968e-08 | d yr |
n | .1874510791948779 | 2.4839e-09 | deg/d |
Q | 3.341545387548124 | 2.9519e-08 | au |
|
| | Orbit Determination Parameters
Additional Information
|